SL-16 DEB, 43374

Orbit data source: Space-Track

SL-16 DEB, 43374 is space debris in LEO originally from a launch on Fri, 29 Jun 2007 UTC launched from the Tyuratam Missile And Space Complex (TTMTR). Debris objects in space refer to the collection of defunct objects orbiting the Earth. Examples of debris include non-operational satellites, rocket bodies, and fragments generated from explosions, collisions, or faulty payload assembly.

Loading next visibility...
Identifier
43374, 2007-029R
Orbit
LEO
Country
Flag of CISCIS
Related business
Manufacturer
Yuzhnoe
Mission
Spacecraft
Bus & Motor
Unknown
Mass
Unknown
Launch date (UTC)
2007-06-29 (19 years ago)
Launch vehicle
Unknown
Launch site
Tyuratam Missile And Space Complex (TTMTR)
Object type
Payload
Rocket body
Debris
Shape & HBR
Unknown shape, 0.1 m
Radar Cross Section
Small (<0.1 m²)

Expand to show TLE details & history
Last TLE update: 1 week ago

TLE from 1 week ago
0 SL-16 DEB
1 43374U 07029R   26166.49621431  .00002752  00000-0  19450-2 0  9997
2 43374  71.0670 258.3747 0183993 266.1614  91.8444 13.90934744631744
Epoch: 2026-06-15T11:54Z
TLE epoch observation values (Epoch: 2026-06-15T11:54:32.916Z)
Latitude
0.00001°
Longitude
175.95579°
Altitude
934.528 km
Speed
7.381 km/s
True Right ascension
17h 13m 29s
True Declination
0° 00' 00"
Sunlit
Object was in full shadow at epoch
Visualization orbit readout
Latitude
Unknown
Longitude
Unknown
Altitude
Unknown
Speed
Unknown
Apparent Right ascension
Unknown
Apparent Declination
Unknown
Sunlit
N/A
Visualization observer readout
Local Sidereal Time
21:34:50
Azimuth
Unknown
Elevation
Unknown
Doppler factor
Unknown
Orbital elements
Apogee altitude
1,057.639 km
Perigee altitude
788.957 km
Semi-major axis
7,301.435 km
Eccentricity
0.0184
Inclination
71.067°
RAAN
258.3747°
Arg. of periapsis
266.1614°
True anomaly
93.94968°
Mean anomaly
91.8444°
Eccentric anomaly
92.89725°
Mean motion
3.47881 °/min
Orbital period
103.48 mins
BSTAR
0.001945
Loading maneuver chart data...
Computing Atmospheric mass density...
Loading historical data...
Loading historical data...
Loading historical data...
Loading historical data...
Loading historical data...
Loading historical data...
Loading historical data...

Documentation

Showing up to 5 results
|